[[{"header":{"parameterUnit":"m.s-1","parameterCategory":1,"la1":30.2991,"la2":30.254,"lo1":-89.0895,"lo2":-89.0444,"dy":0.0017,"dx":0.0017,"nx":28,"ny":28,"refTime":"2023-08-08T03:00:00:Z","depth":0,"parameterNumber":2,"parameterNumberName":"U-component_of_WINDS"},"data":[0,0,0,0,0,0,0,0,0,0,0,0,0,0,0,0,0,0,0,0,0,0,0,0,0,0,0,0,0,0,0,0,0,0,0,0,0,0,0,0,0,0,0,0,0,0,0,0,0,0,0,0,0,0,0,0,0,0,3.5531,3.5532,0,3.5579,3.5579,3.558,3.553,3.5528,3.5527,3.5525,3.5572,3.5575,3.5578,0,0,0,0,0,0,0,0,0,0,0,0,0,3.5395,3.5398,3.5531,3.5532,3.5532,3.5579,3.5579,3.558,3.5531,3.5528,3.5526,3.5524,3.5571,3.5575,3.5579,0,0,0,0,0,0,0,0,0,0,0,0,0,3.545,3.5399,3.5531,3.5513,3.5512,3.5579,3.5579,3.558,3.5531,3.5528,3.5525,3.5523,3.557,3.5575,3.5579,3.5665,0,0,3.5593,3.5595,0,0,0,0,0,0,0,0,3.5447,3.5455,3.5515,3.5515,3.5514,3.5546,3.5549,3.5609,3.5532,3.5524,3.5525,3.5521,3.5566,3.557,3.5586,3.5667,3.5669,3.5593,3.5596,3.5598,3.56,0,0,0,0,0,0,0,3.5443,3.5452,3.555,3.5516,3.5515,3.5502,3.5507,3.556,3.556,3.5524,3.5521,3.5527,3.5565,3.5581,3.5586,3.567,3.5593,3.5597,3.56,3.5602,3.5821,3.5824,0,0,0,0,0,0,3.5441,3.545,3.5548,3.5551,3.5472,3.5507,3.5512,3.5538,3.556,3.556,3.553,3.5525,3.5575,3.5581,3.5588,3.5687,3.5598,3.5602,3.5605,3.5818,3.5822,3.5825,0,0,0,0,0,0,3.5439,3.5451,3.5546,3.55,3.5511,3.5513,3.5542,3.5541,3.5557,3.5564,3.5563,3.5547,3.5573,3.5581,3.5646,3.5688,3.5605,3.5609,3.5815,3.5819,3.5824,3.5888,0,0,0,0,0,0,3.5435,3.545,3.5483,3.5501,3.5514,3.5604,3.5545,3.5544,3.5565,3.556,3.558,3.558,3.5571,3.5639,3.565,3.5693,3.5612,3.5811,3.5817,3.5822,3.5882,3.5894,3.5905,0,0,0,0,0,3.543,3.55,3.5485,3.5497,3.5555,3.5607,3.5614,3.5603,3.5569,3.5602,3.5606,3.5579,3.5683,3.5646,3.5658,3.5703,3.5808,3.5815,3.5822,3.5877,3.5892,3.5905,0,0,0,0,0,0,3.5487,3.5502,3.5486,3.5563,3.5584,3.5598,3.5639,3.5619,3.565,3.5643,3.5628,3.5632,3.57,3.5708,3.5667,3.5786,3.574,3.5749,3.5778,3.5792,3.5803,3.5798,3.5616,0,0,0,0,0,3.5508,3.555,3.556,3.5627,3.5639,3.5637,3.5659,3.5649,3.567,3.5678,3.5687,3.5708,3.5745,3.5769,3.5804,3.5884,3.5886,3.5921,3.5932,3.5942,3.5949,3.599,3.6005,3.5848,3.5848,3.5848,0,0,3.5553,3.5566,3.5593,3.5639,3.5654,3.5696,3.5645,3.5692,3.5723,3.5686,3.5746,3.5753,3.5775,3.5847,3.5879,3.5856,3.5993,3.5951,3.5958,3.596,3.5999,3.6013,3.6027,3.5853,3.5852,3.5851,0,0,3.5655,3.567,3.5726,3.5743,3.5766,3.5765,3.5778,3.5796,3.5799,3.586,3.5832,3.5868,3.5933,3.5949,3.5965,3.6073,3.6049,3.6085,3.6144,3.6183,3.6196,3.6206,3.6242,3.6255,3.6093,3.6094,3.6094,0,3.5707,3.5769,3.5758,3.5806,3.5826,3.5796,3.5851,3.5868,3.5901,3.5915,3.5889,3.5968,3.5981,3.6055,3.6082,3.6097,3.6111,3.6082,3.6195,3.6206,3.6216,3.6249,3.6263,3.6098,3.6097,3.6097,3.6096,0,3.5831,3.5875,3.5917,3.595,3.5976,3.6028,3.6023,3.605,3.6038,3.6039,3.61,3.6115,3.615,3.6168,3.6157,3.624,3.6224,3.6198,3.615,3.6235,3.6266,3.6279,3.6103,3.6102,3.6101,3.61,0,0,3.5968,3.5994,3.6009,3.6023,3.6047,3.608,3.6131,3.6166,3.6188,3.6213,3.6253,3.6308,3.6282,3.6301,3.6292,3.6327,3.6408,3.6295,3.6295,3.6313,3.6498,3.6516,3.6531,3.6394,3.6396,3.6398,3.6495,0,3.6068,3.6155,3.6146,3.6229,3.6268,3.6239,3.6283,3.6302,3.6304,3.6337,3.634,3.6378,3.6343,3.6354,3.6388,3.6391,3.6445,3.6385,3.6429,3.6431,3.6421,3.6548,3.6568,3.6658,3.6508,3.651,3.6511,0,3.6196,3.6224,3.6311,3.6327,3.6343,3.6383,3.6413,3.6446,3.6466,3.6466,3.6487,3.6471,3.652,3.6474,3.654,3.6499,3.6517,3.6522,3.6525,3.6526,3.6474,3.655,3.6687,3.67,3.6531,3.6529,3.6528,0,3.6283,3.6344,3.6403,3.6416,3.6437,3.6465,3.6475,3.6493,3.6514,3.6541,3.6554,3.6587,3.6604,3.6629,3.6622,3.659,3.6689,3.6643,3.6688,3.6688,3.6708,3.6706,3.6847,3.6725,3.6724,3.6724,3.6724,0,3.6394,3.6447,3.6442,3.6478,3.6536,3.6526,3.6584,3.659,3.6606,3.6642,3.662,3.6654,3.6644,3.6677,3.6672,3.6726,3.6735,3.6734,3.6731,3.6734,3.6734,3.6743,3.6735,3.6728,3.6727,3.6726,3.6726,0,3.65,3.6499,3.6561,3.6576,3.6582,3.6624,3.6636,3.6669,3.6671,3.6716,3.6726,3.6727,3.6765,3.6761,3.6804,3.68,3.6866,3.6858,3.6859,3.6856,3.69,3.6895,3.7049,3.7068,3.6937,3.6938,3.6939,0,3.6569,3.661,3.6629,3.6652,3.6664,3.6701,3.6722,3.6714,3.6737,3.6762,3.6792,3.6828,3.6856,3.6918,3.6922,3.6954,3.6944,3.6996,3.6948,3.6949,3.6941,3.6937,3.694,3.7004,3.7005,3.7007,3.7008,0,3.6691,3.6689,3.6721,3.6753,3.6779,3.6804,3.6826,3.6846,3.6839,3.6866,3.6904,3.6926,3.6969,3.7004,3.7034,3.7044,3.7024,3.7023,3.7034,3.7036,3.7034,3.7033,3.6881,3.7019,3.7018,3.7017,3.7016,3.7016,3.6779,3.6812,3.6831,3.6867,3.6883,3.6905,3.6936,3.6941,3.6973,3.7007,3.7001,3.7043,3.7061,3.71,3.7112,3.7145,3.7125,3.7143,3.7147,3.715,3.7154,3.7032,3.7151,3.715,3.715,3.715,3.7149,0,3.6897,3.6908,3.6941,3.6973,3.7001,3.6982,3.7005,3.703,3.7068,3.7087,3.7115,3.7158,3.7192,3.7199,3.7231,3.7255,3.7247,3.7263,3.726,3.7262,3.7171,3.7156,3.727,3.727,3.727,3.727,3.7269,3.7269,3.6961,3.7016,3.7016,3.7078,3.7088,3.713,3.7145,3.7164,3.7179,3.7228,3.7256,3.7261,3.7275,3.7307,3.7337,3.7338,3.7349,3.7369,3.7366,3.7281,3.7269,3.7257,3.7243,3.7373,3.7373,3.7454,3.7455,3.7455]},{"header":{"parameterUnit":"m.s-1","parameterCategory":1,"la1":30.2991,"la2":30.254,"lo1":-89.0895,"lo2":-89.0444,"dy":0.0017,"dx":0.0017,"nx":28,"ny":28,"refTime":"2023-08-08T03:00:00:Z","depth":0,"parameterNumber":3,"parameterNumberName":"V-component_of_WINDS"},"data":[0,0,0,0,0,0,0,0,0,0,0,0,0,0,0,0,0,0,0,0,0,0,0,0,0,0,0,0,0,0,0,0,0,0,0,0,0,0,0,0,0,0,0,0,0,0,0,0,0,0,0,0,0,0,0,0,0,0,3.1721,3.1722,0,3.1788,3.1789,3.179,3.1793,3.1792,3.1791,3.1791,3.186,3.1862,3.1865,0,0,0,0,0,0,0,0,0,0,0,0,0,3.1595,3.1598,3.1721,3.1722,3.1723,3.1788,3.1789,3.179,3.1793,3.1792,3.1791,3.179,3.1859,3.1862,3.1865,0,0,0,0,0,0,0,0,0,0,0,0,0,3.1655,3.1598,3.1721,3.1732,3.1734,3.1788,3.1789,3.179,3.1793,3.1792,3.1791,3.179,3.1858,3.1861,3.1865,3.1913,0,0,3.1877,3.1879,0,0,0,0,0,0,0,0,3.1651,3.1659,3.173,3.1731,3.1733,3.1781,3.177,3.1831,3.1794,3.1771,3.1791,3.1789,3.1834,3.184,3.1855,3.1916,3.1919,3.1877,3.188,3.1881,3.1882,0,0,0,0,0,0,0,3.1647,3.1657,3.1747,3.1731,3.1733,3.1734,3.1741,3.1781,3.1808,3.1773,3.1773,3.1781,3.1835,3.1852,3.1857,3.192,3.1877,3.1881,3.1883,3.1885,3.2021,3.2022,0,0,0,0,0,0,3.1641,3.1653,3.1745,3.1749,3.1689,3.1737,3.1745,3.1767,3.1808,3.1813,3.1782,3.1781,3.1846,3.1852,3.1859,3.1916,3.1881,3.1885,3.1887,3.202,3.2021,3.2023,0,0,0,0,0,0,3.1638,3.1649,3.1743,3.1701,3.1713,3.174,3.1765,3.1769,3.1785,3.1815,3.182,3.1794,3.1845,3.1854,3.1899,3.1919,3.1887,3.189,3.2018,3.202,3.2022,3.2031,0,0,0,0,0,0,3.1635,3.1648,3.1667,3.1702,3.1716,3.1781,3.1766,3.1771,3.1792,3.1791,3.1827,3.1832,3.1845,3.1893,3.1903,3.1924,3.1893,3.2017,3.2019,3.2021,3.2029,3.2033,3.2037,0,0,0,0,0,3.163,3.1667,3.1668,3.1679,3.1739,3.1782,3.179,3.1804,3.1793,3.1812,3.1831,3.1831,3.1915,3.1898,3.1909,3.1931,3.2015,3.2018,3.2021,3.2028,3.2033,3.2037,0,0,0,0,0,0,3.1634,3.1672,3.1673,3.1722,3.1749,3.1783,3.1807,3.1809,3.184,3.1838,3.1853,3.1862,3.1906,3.1923,3.1903,3.1978,3.1964,3.1969,3.1965,3.197,3.1974,3.1968,3.1896,0,0,0,0,0,3.164,3.1672,3.1704,3.1744,3.1757,3.178,3.1799,3.1807,3.1836,3.1847,3.187,3.1897,3.193,3.1951,3.1983,3.2032,3.2039,3.2053,3.2056,3.2059,3.2063,3.2089,3.2095,3.2033,3.2033,3.2032,0,0,3.1654,3.1679,3.1698,3.1745,3.1767,3.18,3.1789,3.1825,3.1849,3.1853,3.1896,3.1914,3.1945,3.1992,3.2014,3.2008,3.2082,3.2063,3.2065,3.2068,3.2093,3.2099,3.2104,3.2035,3.2034,3.2034,0,0,3.1695,3.1718,3.1753,3.1775,3.1808,3.1822,3.1831,3.1864,3.1876,3.192,3.1923,3.1952,3.2008,3.203,3.2049,3.2098,3.2099,3.2108,3.2127,3.2152,3.2157,3.2162,3.2178,3.2184,3.2112,3.2112,3.2112,0,3.1708,3.1757,3.1771,3.1806,3.1826,3.1831,3.1867,3.1887,3.1929,3.1943,3.1935,3.2005,3.2027,3.2079,3.209,3.2106,3.2115,3.2104,3.2155,3.216,3.2164,3.218,3.2186,3.2113,3.2113,3.2113,3.2113,0,3.1771,3.1805,3.183,3.1869,3.1892,3.1927,3.1946,3.1968,3.1974,3.1989,3.2033,3.206,3.2096,3.2109,3.2116,3.2162,3.2157,3.2152,3.2138,3.2171,3.2186,3.2192,3.2114,3.2114,3.2113,3.2113,0,0,3.1817,3.1863,3.1871,3.1889,3.1925,3.1952,3.1987,3.2022,3.204,3.2069,3.2098,3.2145,3.214,3.2162,3.2171,3.2193,3.2228,3.2186,3.2186,3.2192,3.2279,3.2282,3.2289,3.2229,3.2231,3.2232,3.2276,0,3.1861,3.1923,3.1936,3.199,3.2021,3.2026,3.2056,3.2081,3.2096,3.2125,3.2141,3.2174,3.2166,3.2179,3.2201,3.2219,3.2246,3.2216,3.2256,3.2257,3.2247,3.2297,3.23,3.2341,3.2282,3.2283,3.2284,0,3.1922,3.1951,3.2007,3.2038,3.2052,3.2079,3.2112,3.2139,3.2168,3.2177,3.22,3.2206,3.2242,3.2227,3.2276,3.2256,3.2273,3.2284,3.2286,3.229,3.2272,3.2301,3.2354,3.236,3.2294,3.2293,3.2292,0,3.1948,3.2001,3.2042,3.2057,3.2094,3.2113,3.213,3.2157,3.2177,3.2206,3.2219,3.2252,3.227,3.2295,3.231,3.2298,3.2358,3.2344,3.2366,3.2366,3.2378,3.2377,3.2434,3.239,3.239,3.239,3.239,0,3.1996,3.203,3.2054,3.2079,3.2117,3.2131,3.2169,3.2185,3.2209,3.2237,3.2243,3.2269,3.2288,3.2316,3.2328,3.2367,3.2375,3.2383,3.2385,3.2382,3.2381,3.2393,3.239,3.2392,3.2391,3.2391,3.2391,0,3.2031,3.2049,3.2093,3.2125,3.2133,3.216,3.2187,3.2211,3.2226,3.2261,3.227,3.2293,3.2327,3.2344,3.2386,3.2394,3.2437,3.2439,3.2428,3.2428,3.2449,3.2446,3.2515,3.2525,3.2475,3.2476,3.2476,0,3.206,3.2086,3.2121,3.214,3.2156,3.2187,3.2207,3.2223,3.2243,3.2277,3.2297,3.2331,3.2359,3.2412,3.2433,3.2465,3.2467,3.2488,3.2471,3.2467,3.2466,3.2464,3.2466,3.2491,3.2492,3.2492,3.2492,0,3.2109,3.2116,3.2146,3.2178,3.2202,3.2228,3.2253,3.2268,3.2288,3.2311,3.2345,3.2367,3.2409,3.2442,3.2476,3.2493,3.2496,3.2498,3.2504,3.25,3.2492,3.2496,3.2435,3.2496,3.2496,3.2495,3.2495,3.2495,3.2142,3.2165,3.2192,3.2224,3.2245,3.2269,3.2292,3.231,3.2339,3.2374,3.2382,3.2418,3.2445,3.249,3.2508,3.2536,3.2531,3.2541,3.2543,3.2545,3.2546,3.2488,3.2542,3.2542,3.2542,3.2542,3.2542,0,3.2191,3.2208,3.2238,3.2273,3.2298,3.2298,3.2326,3.2347,3.2379,3.2404,3.2431,3.247,3.2502,3.2525,3.2557,3.2575,3.2577,3.2583,3.2582,3.2585,3.2549,3.2539,3.2581,3.2581,3.2581,3.2581,3.2581,3.2581,3.2219,3.2257,3.2268,3.2317,3.2334,3.2369,3.2385,3.2407,3.2427,3.247,3.2496,3.2511,3.2535,3.2569,3.2598,3.2604,3.2615,3.2621,3.2627,3.2592,3.2588,3.2584,3.2575,3.2624,3.2624,3.2661,3.2662,3.2662]}]]